Probability
0 0 0 0 0 0 0 0 0 0 0 0 0 0 0 0 0 0 0 0 0 0 0 0 0 0 0 0 0 0 0 0 0 0 0 0 0 0
0 0 0 0 0 0 0 0 0 0 0 0 0 0 0 0 0 0 0 0 0 0 0 0 0 0 0 0 0 0 0 0 0 0 0 0 0 0
0 0 0 0 0 0 0 0 0 0 0 0 0 0 0 0 0 0 0 0 0 0 0 0 0 0 0 0 0 0 0 0 0 0 0 0 0 0
0 0 0 0 0 0 0 0 0 0 0 0 0 0 0 0 0 0 0 0 0 0 0 0 0 0 0 0 0 0 0 0 0 0 0 0 0 0
1 1 0 0 0 0 0 0 0 0 0 0 0 0 0 0 0 0 0 0 0 0 0 0 0 0 0 0 0 0 0 0 0 0 0 0 0 0
2 1 0 0 0 0 0 0 0 0 0 0 0 0 0 0 0 0 0 0 0 0 0 0 0 0 0 0 0 0 0 0 0 0 0 0 0 0
1 1 0 0 0 0 0 0 0 0 0 0 0 0 0 0 0 0 0 0 0 0 0 0 0 0 0 0 0 0 0 0 0 0 0 0 0 0
0 0 0 0 0 0 0 0 0 0 0 0 0 0 0 0 0 0 0 0 0 0 0 0 0 0 0 0 0 0 0 0 0 0 0 0 0 0
0 0 0 0 0 0 0 0 0 0 0 0 0 0 0 0 0 0 0 0 0 0 0 0 0 0 0 0 0 0 0 0 0 0 0 0 0 0
0 0 0 0 0 0 0 0 0 0 0 0 0 0 0 0 0 0 0 0 0 0 0 0 0 0 0 0 0 0 0 0 0 0 0 0 0 0
0 0 0 0 0 0 0 0 0 0 0 0 0 0 0 0 0 0 0 0 0 0 0 0 0 0 0 0 0 0 0 0 0 0 0 0 0 0
0 0 0 0 0 0 0 0 0 0 0 0 0 0 0 0 0 0 0 0 0 0 0 0 0 0 0 0 0 0 0 0 0 0 0 0 0 0
0 0 0 0 0 0 0 0 0 0 0 0 0 0 0 0 0 0 0 0 0 0 0 0 0 0 0 0 0 0 0 0 0 0 0 0 0 0
0 0 0 0 0 0 0 0 0 0 0 0 0 0 0 0 0 0 0 0 0 0 0 0 0 0 0 0 0 0 0 0 0 0 0 0 0 0
0 0 0 0 0 0 0 0 0 0 0 0 0 0 0 0 0 0 0 0 0 0 0 0 0 0 0 0 0 0 0 0 0 0 0 0 0 0
0 0 0 0 0 0 0 0 0 0 0 0 0 0 0 0 0 0 0 0 0 0 0 0 0 0 0 0 0 0 0 0 0 0 0 0 0 0
0 0 0 0 0 0 0 0 0 0 0 0 0 0 0 0 0 0 0 0 0 0 0 0 0 0 0 0 0 0 0 0 0 0 0 0 0 0
0 0 0 0 0 0 0 0 0 0 0 0 0 0 0 0 0 0 0 0 0 0 0 0 0 0 0 0 0 0 0 0 0 0 0 0 0 0
0 0 0 0 0 0 0 0 0 0 0 0 0 0 0 0 0 0 0 0 0 0 0 0 0 0 0 0 0 0 0 0 0 0 0 0 0 0
0 0 0 0 0 0 0 0 0 0 0 0 0 0 0 0 0 0 0 0 0 0 0 0 0 0 0 0 0 0 0 0 0 0 0 0 0 0
0 0 0 0 0 0 0 0 0 0 0 0 0 0 0 0 0 0 0 0 0 0 0 0 0 0 0 0 0 0 0 0 0 0 0 0 0 0
0 0 0 0 0 0 0 0 0 0 0 0 0 0 0 0 0 0 0 0 0 0 0 0 0 0 0 0 0 0 0 0 0 0 0 0 0 0
0 0 0 0 0 0 0 0 0 0 0 0 0 0 0 0 0 0 0 0 0 0 0 0 0 0 0 0 0 0 0 0 0 0 0 0 0 0
Wind_Speed
5 5 4 3 3 2 3 3 4 4 3 3 2 2 1 1 1 0 1 3 4 5 5 5 5 6 6 6 6 7 7 6 6 6 5 5 4 3
4 6 5 3 3 3 3 3 4 4 3 1 1 1 1 1 1 0 1 3 4 4 4 4 4 5 5 5 5 6 7 6 7 8 8 7 7 6
5 5 5 4 3 3 3 3 3 4 4 1 1 1 2 2 1 1 0 1 2 3 3 4 4 4 5 4 4 5 6 6 6 7 8 8 8 7
6 6 5 3 4 3 3 3 3 3 3 3 1 1 2 2 2 1 1 1 1 3 3 3 4 4 5 5 5 6 6 7 7 8 8 8 8 8
6 6 5 5 4 3 3 3 2 2 3 2 1 1 1 2 2 1 1 1 1 2 3 3 3 4 5 5 6 6 6 7 7 7 8 8 7 7
5 5 5 4 4 3 3 3 2 3 3 2 2 2 2 2 2 2 2 1 1 1 2 2 4 4 4 4 5 5 5 5 5 6 7 7 7 7
5 4 4 3 3 2 2 3 3 3 3 2 2 2 2 3 3 3 2 2 1 1 1 1 1 1 2 3 3 3 3 3 4 4 5 5 6 6
6 4 4 4 4 4 3 1 1 2 3 3 3 3 4 3 2 3 3 3 3 2 2 2 1 1 1 1 2 2 2 3 4 4 4 4 4 4
6 5 4 4 5 4 4 4 2 1 1 3 4 4 3 3 4 4 4 3 2 3 2 2 2 2 1 1 1 2 3 3 3 3 3 3 3 3
5 6 5 6 5 4 4 3 2 2 1 1 2 2 2 2 3 3 3 2 2 1 2 2 3 3 2 2 2 3 4 3 3 3 2 2 1 1
5 5 5 5 7 7 5 4 3 2 3 3 3 2 1 1 3 3 4 3 2 3 2 2 2 2 2 3 2 2 3 4 3 3 2 2 1 2
4 4 5 6 8 8 5 5 4 3 3 2 3 3 3 3 2 2 3 2 2 2 3 3 2 2 2 3 3 3 3 4 4 4 4 3 3 3
4 4 5 8 8 8 6 4 3 3 3 2 2 2 2 2 1 1 0 1 1 1 3 3 2 2 2 2 3 3 3 3 3 3 4 4 5 5
5 4 5 8 8 8 5 5 6 5 3 3 2 2 2 1 1 2 2 2 2 1 2 2 2 2 2 2 2 3 3 3 3 3 3 4 5 7
4 6 7 8 8 6 7 7 7 4 4 4 3 3 2 2 2 2 2 2 3 2 2 1 1 2 2 2 1 2 2 3 4 4 3 4 4 4
5 6 8 8 6 5 6 6 5 4 4 4 3 3 3 3 3 3 2 2 2 2 2 1 1 2 2 3 3 3 3 2 3 4 4 4 5 5
6 4 4 5 5 5 5 5 5 5 5 4 4 4 4 4 4 3 3 3 3 3 3 3 2 2 3 3 4 5 4 4 4 4 4 5 6 6
8 5 6 6 6 6 6 6 6 6 5 5 5 5 5 5 4 4 4 4 4 4 3 3 3 2 3 5 9 6 5 4 4 4 5 5 6 6
7 6 6 6 6 6 6 6 6 5 5 5 5 5 5 5 5 5 5 5 5 5 4 4 4 4 4 4 5 9 5 4 4 4 5 6 6 5
5 5 5 6 6 6 6 6 5 5 5 6 6 6 6 6 6 6 6 7 6 5 5 6 6 7 6 3 2 3 9 6 4 5 4 5 6 8
5 5 5 5 5 5 5 5 6 5 6 6 6 6 6 7 7 7 6 9 8 6 7 7 6 8 3 2 4 4 5 10 9 5 4 4 4 5
5 5 5 5 5 5 5 5 5 6 6 6 6 6 6 7 7 8 7 7 7 7 7 5 4 6 6 7 7 6 4 5 9 14 13 10 5 4
4 4 4 5 5 5 5 6 7 6 6 6 6 6 6 7 7 7 7 7 7 7 7 6 5 6 7 7 8 7 8 6 5 6 9 14 19 20
Wind_Direction
192 193 196 193 192 204 217 226 240 248 238 202 182 156 156 152 117 229 63 80 72 73 73 65 53 42 35 37 35 39 40 46 57 63 76 91 102 117
180 186 190 183 180 191 205 220 235 249 251 182 183 158 162 160 126 99 82 108 98 95 87 74 62 54 46 43 42 44 42 57 63 65 72 83 89 87
175 183 184 179 180 185 192 210 222 231 244 236 179 171 187 185 154 113 83 94 108 105 103 88 72 63 55 56 57 54 54 63 67 71 72 78 82 83
173 176 179 174 187 189 194 206 217 225 241 241 206 186 201 186 161 138 84 63 78 103 105 97 83 77 69 62 65 67 66 65 66 67 71 76 79 80
172 176 174 179 186 184 200 209 213 221 235 238 211 172 168 162 154 131 126 99 76 96 112 105 98 91 83 74 70 70 69 67 67 66 68 70 76 82
161 166 168 177 180 179 195 209 213 218 219 221 213 196 179 167 177 181 192 183 153 85 103 90 100 99 95 90 80 74 75 75 74 73 71 69 69 76
153 155 153 149 156 177 193 201 205 216 214 214 214 199 193 187 201 188 191 168 184 203 182 153 141 124 107 108 103 93 93 94 89 86 85 80 76 77
154 150 145 147 145 147 145 148 204 225 219 215 221 222 220 212 184 180 170 180 203 183 197 182 197 189 160 134 113 126 131 122 113 103 92 87 84 83
159 160 155 151 157 150 137 130 114 60 292 253 240 238 232 210 188 192 193 202 197 145 183 186 186 200 176 181 188 183 168 155 142 129 115 100 89 85
163 170 167 166 166 163 155 143 128 103 50 261 264 274 272 232 202 197 178 144 105 139 212 197 182 194 177 195 191 200 188 182 180 174 160 136 104 84
162 172 175 173 163 168 166 162 161 139 89 69 51 51 71 144 160 150 157 171 180 175 194 208 167 174 190 194 170 204 203 195 196 198 198 200 213 240
166 174 187 186 173 182 186 180 185 170 154 137 119 107 109 121 145 190 183 185 173 177 174 189 165 166 193 187 196 205 206 202 212 219 227 228 230 246
173 180 183 186 189 192 199 198 185 169 172 171 162 147 137 120 109 84 97 179 186 181 155 169 168 180 192 179 190 202 216 214 214 219 228 235 236 244
182 181 180 186 193 194 198 184 176 178 184 187 197 195 182 156 114 87 70 58 53 88 141 152 164 178 177 188 190 184 210 221 227 232 233 235 241 241
180 177 179 186 192 196 196 189 188 193 195 201 208 202 186 155 145 131 118 99 85 79 97 120 171 172 199 210 195 191 207 215 219 230 233 236 238 234
180 177 183 190 194 193 190 197 203 205 209 217 209 187 170 172 187 182 176 173 176 160 132 143 176 190 209 222 226 226 216 219 212 222 234 243 243 240
163 165 176 182 190 194 198 202 202 203 212 215 205 195 191 192 193 186 189 194 208 197 183 179 185 210 245 240 232 231 226 226 225 218 229 245 244 239
172 182 191 197 202 202 204 205 207 209 209 207 207 207 204 201 196 190 197 208 216 213 201 183 181 200 225 234 221 236 231 230 225 221 230 249 256 243
194 195 199 202 205 207 208 209 211 208 202 204 208 209 207 206 203 202 203 210 219 219 209 192 193 205 231 247 197 206 225 221 219 224 228 238 258 262
205 205 206 205 205 207 209 211 212 205 201 208 210 210 208 208 210 212 211 214 217 217 215 207 207 211 222 251 258 206 213 224 225 233 238 243 259 269
208 210 209 209 207 207 209 210 210 209 207 206 211 211 210 211 216 217 217 218 219 221 223 222 216 207 210 226 248 242 217 217 226 233 236 246 258 258
214 212 211 211 209 209 209 207 208 211 209 212 214 213 211 213 219 219 218 218 219 224 230 226 183 185 199 218 237 245 239 222 229 238 242 237 235 243
218 217 217 214 213 210 209 211 214 216 213 213 214 214 212 214 218 219 220 222 224 224 223 218 203 203 213 223 238 246 249 243 243 242 242 238 241 251